星链-30955 (STARLINK-30955 )

导读 | 豆包AI

STARLINK-30955是美国SpaceX公司星链(Starlink)星座项目的卫星,于2023年11月22日发射升空。星链计划是全球知名低轨宽带卫星互联网项目,该卫星作为星链组网卫星之一,部署于近地轨道,依托星座组网能力,可为全球偏远、基础设施薄弱地区提供高速稳定的宽带互联网接入服务,进一步完善了星链星座的全球覆盖能力。

基本信息
目录编号:
58417
目录名称:
STARLINK-30955
国际标识:
2023-180R
轨道中心:
EARTH
卫星名称:
星链-30955
卫星全名:
星链-30955 (STARLINK-30955 )
卫星状态:
在轨 (已飞行890 天)
发射日期:
2023-11-22 UTC
国别 :
美国 (US)
星等 :
--
轨道信息
数据来源 国际轨道数据 AOE轨道数据
星历时间 2026-04-30T19:51:36+0800
9小时前
查看轨道信息
2026-04-30T13:00:00+0800
16小时前
查看轨道信息
半长轴 6861.188km 6861.21km
偏心率 0.0001011 0.0000808
轨道倾角 43.002° 43.002°
近地点辐角 270.866° 283.928°
升交点赤经 119.559° 121.179°
平近点角 89.207° 302.388°
近地点 482.357km 482.518km
远地点 483.745km 483.628km
周期 94.267分钟 94.267分钟
每日圈数 15.275796 15.275723
详细信息
固有亮度:
5
最大亮度:
0.3
卫星平台:
Starlink v2.0 mini
覆盖范围:
全球
运营商:
太空探索技术公司
运营商所在国:
美国
制造商(研发单位):
太空探索技术公司
制造商所在国:
美国
使用方式:
暂无
卫星简介
星链(Starlink)计划是由太空探索技术公司(SpaceX)提出的一个巨型低轨卫星互联网星座项目,计划在2019年至2024年间在太空搭建由约1.2万颗卫星组成的“星链”网络,其中1584颗将部署在地球上空550千米处的近地轨道,并从2020年开始工作。该卫星仍在工作。
2D轨道图
3D轨道图
轨道高度分析图
轨道倾角分析图
轨道综合分析图
查看轨道综合分析图